Aalborg, Denmark

1:55 AM CEST on May 25, 2017 (GMT +0200)
Aalborg

Weather History for EKYT - February, 2013

Change the Weather History Date:

Tuesday, February 19, 2013

  Actual Average Record
Temperature  
Mean Temperature 32 °F -  
Max Temperature 33 °F 39 °F 47 °F (2017)
Min Temperature 28 °F 29 °F 12 °F (2011)
Degree Days  
Heating Degree Days 34    
Moisture  
Dew Point 26 °F    
Average Humidity 78    
Maximum Humidity 93    
Minimum Humidity 60    
Precipitation  
Precipitation 0.00 in - - ()
Sea Level Pressure  
Sea Level Pressure 30.16 in    
Wind  
Wind Speed 10 mph ()    
Max Wind Speed 15 mph    
Max Gust Speed 26 mph    
Visibility 7.0 miles    
Events Snow    
Averages and records for this station are not official NWS values.
T = Trace of Precipitation, MM = Missing Value Source: Averaged Metar Reports

Daily Weather History Graph

Daily Weather History Graph

Search for Another Location

Airport or City:

Trip Planner

Search our weather history database for the weather conditions in past years. The results will help you decide how hot, cold, wet, or windy it might be!

Date:

Astronomy

Feb. 19, 2013 Rise Set
Actual Time 7:39 AM CET 5:30 PM CET
Civil Twilight 6:59 AM CET 6:10 PM CET
Nautical Twilight 6:15 AM CET 6:54 PM CET
Astronomical Twilight 5:30 AM CET 7:39 PM CET
Moon 11:09 AM CET (2/19) 3:35 AM CET (2/19)
Length of Visible Light 11h 10m
Length of Day
9h 51m
Waxing Gibbous, 65% of the Moon is Illuminated
Feb 19
Waxing Gibbous
Feb 25
Full
Mar 4
Last Quarter
Mar 11
New
Mar 19
First Quarter

Hourly Weather History & Observations

Time (CET) Temp. Windchill Dew Point Humidity Pressure Visibility Wind Dir Wind Speed Gust Speed Precip Events Conditions
12:20 AM 35.6 °F 28.6 °F 33.8 °F 93% 29.95 in 5.0 mi NE 9.2 mph - N/A   Mostly Cloudy
12:50 AM 35.6 °F 28.0 °F 33.8 °F 93% 29.95 in 5.0 mi NE 10.4 mph - N/A   Mostly Cloudy
1:00 AM 36 °F - 33 °F 84% 29.96 in 5 mi NE 9.2 mph - -   Partly Cloudy
1:20 AM 35.6 °F 29.2 °F 32.0 °F 87% 29.95 in 5.0 mi NNE 8.1 mph - N/A   Mostly Cloudy
1:50 AM 35.6 °F 29.2 °F 32.0 °F 87% 29.98 in 6.2 mi NE 8.1 mph - N/A   Mostly Cloudy
2:20 AM 35.6 °F 28.0 °F 30.2 °F 81% 29.98 in 6.2 mi ENE 10.4 mph - N/A   Mostly Cloudy
2:50 AM 33.8 °F 25.3 °F 30.2 °F 87% 29.98 in 6.2 mi ENE 11.5 mph - N/A   Overcast
3:20 AM 33.8 °F 25.3 °F 30.2 °F 87% 30.01 in 6.2 mi NE 11.5 mph - N/A   Overcast
3:50 AM 33.8 °F 24.8 °F 30.2 °F 87% 30.01 in 6.2 mi ENE 12.7 mph - N/A   Overcast
4:20 AM 33.8 °F 24.8 °F 28.4 °F 81% 30.01 in 6.2 mi ENE 12.7 mph 25.3 mph N/A   Overcast
4:50 AM 33.8 °F 25.3 °F 28.4 °F 81% 30.04 in 6.2 mi NE 11.5 mph - N/A   Overcast
5:20 AM 33.8 °F 24.3 °F 28.4 °F 81% 30.04 in 6.2 mi ENE 13.8 mph - N/A   Overcast
5:50 AM 33.8 °F 25.8 °F 28.4 °F 81% 30.04 in 6.2 mi ENE 10.4 mph - N/A   Mostly Cloudy
6:20 AM 33.8 °F 24.8 °F 28.4 °F 81% 30.06 in 6.2 mi NE 12.7 mph - N/A   Mostly Cloudy
6:50 AM 32.0 °F 22.5 °F 26.6 °F 80% 30.06 in 6.2 mi ENE 12.7 mph - N/A   Mostly Cloudy
7:00 AM 33 °F - 27 °F 72% 30.08 in 6 mi ENE 10.4 mph - -   Overcast
7:20 AM 33.8 °F 26.4 °F 26.6 °F 75% 30.06 in 6.2 mi NE 9.2 mph - N/A   Mostly Cloudy
7:50 AM 32.0 °F 22.5 °F 26.6 °F 80% 30.09 in 6.2 mi ENE 12.7 mph - N/A   Overcast
8:20 AM 32.0 °F 24.2 °F 26.6 °F 80% 30.09 in 6.2 mi ENE 9.2 mph - N/A   Overcast
8:50 AM 32.0 °F 23.0 °F 26.6 °F 80% 30.12 in 6.2 mi ENE 11.5 mph - N/A   Overcast
9:20 AM 32.0 °F 23.0 °F 26.6 °F 80% 30.12 in 6.2 mi NE 11.5 mph - N/A   Overcast
9:50 AM 32.0 °F 22.5 °F 26.6 °F 80% 30.12 in 6.2 mi ENE 12.7 mph - N/A   Overcast
10:00 AM 32 °F - 25 °F 67% 30.16 in 19 mi ENE 13.8 mph - -   Overcast
10:20 AM 32.0 °F 21.6 °F 24.8 °F 75% 30.15 in 6.2 mi ENE 15.0 mph 26.5 mph N/A   Overcast
10:50 AM 32.0 °F 22.5 °F 24.8 °F 75% 30.15 in 6.2 mi ENE 12.7 mph - N/A   Overcast
11:20 AM 32.0 °F 25.6 °F 26.6 °F 80% 30.15 in 6.2 mi NE 6.9 mph - N/A Snow Light Snow Grains
11:50 AM 32.0 °F 23.6 °F 24.8 °F 75% 30.18 in 6.2 mi NE 10.4 mph - N/A   Overcast
12:20 PM 32.0 °F 23.6 °F 24.8 °F 75% 30.18 in 6.2 mi NE 10.4 mph - N/A   Mostly Cloudy
12:50 PM 32.0 °F 24.2 °F 24.8 °F 75% 30.18 in 6.2 mi NE 9.2 mph - N/A   Scattered Clouds
1:00 PM 33 °F - 24 °F 60% 30.20 in 19 mi NE 10.4 mph - -   Partly Cloudy
1:20 PM 32.0 °F 24.2 °F 23.0 °F 69% 30.18 in 6.2 mi NE 9.2 mph 20.7 mph N/A   Scattered Clouds
1:50 PM 32.0 °F 23.6 °F 24.8 °F 75% 30.18 in 6.2 mi NNE 10.4 mph - N/A   Scattered Clouds
2:20 PM 32.0 °F 23.0 °F 24.8 °F 75% 30.18 in 6.2 mi NE 11.5 mph - N/A   Scattered Clouds
2:50 PM 32.0 °F 23.6 °F 24.8 °F 75% 30.18 in 6.2 mi NE 10.4 mph 21.9 mph N/A   Partly Cloudy
3:20 PM 32.0 °F 24.2 °F 24.8 °F 75% 30.21 in 6.2 mi NE 9.2 mph - N/A   Partly Cloudy
3:50 PM 32.0 °F 23.6 °F 24.8 °F 75% 30.21 in 6.2 mi NE 10.4 mph 21.9 mph N/A   Scattered Clouds
4:00 PM 32 °F - 25 °F 65% 30.23 in 19 mi NE 10.4 mph - -   Partly Cloudy
4:20 PM 32.0 °F 23.0 °F 24.8 °F 75% 30.21 in 6.2 mi NE 11.5 mph - N/A   Mostly Cloudy
4:50 PM 32.0 °F 23.0 °F 24.8 °F 75% 30.24 in 6.2 mi NE 11.5 mph - N/A   Mostly Cloudy
5:20 PM 30.2 °F 19.3 °F 23.0 °F 75% 30.24 in 6.2 mi ENE 15.0 mph - N/A   Mostly Cloudy
5:50 PM 30.2 °F 20.8 °F 23.0 °F 75% 30.24 in 6.2 mi NE 11.5 mph - N/A   Mostly Cloudy
6:20 PM 30.2 °F 20.2 °F 23.0 °F 75% 30.27 in 6.2 mi ENE 12.7 mph 25.3 mph N/A   Mostly Cloudy
6:50 PM 30.2 °F 20.8 °F 24.8 °F 80% 30.27 in 6.2 mi NE 11.5 mph - N/A   Mostly Cloudy
7:00 PM 31 °F - 24 °F 66% 30.28 in 12 mi ENE 11.5 mph - -   Mostly Cloudy
7:20 PM 30.2 °F 21.3 °F 24.8 °F 80% 30.27 in 6.2 mi ENE 10.4 mph - N/A   Mostly Cloudy
7:50 PM 30.2 °F 20.2 °F 23.0 °F 75% 30.30 in 6.2 mi ENE 12.7 mph 24.2 mph N/A   Mostly Cloudy
8:20 PM 30.2 °F 20.2 °F 23.0 °F 75% 30.30 in 6.2 mi NE 12.7 mph - N/A   Partly Cloudy
8:50 PM 30.2 °F 24.3 °F 23.0 °F 75% 30.30 in 6.2 mi NE 5.8 mph - N/A   Partly Cloudy
9:20 PM 30.2 °F 23.4 °F 24.8 °F 80% 30.33 in 6.2 mi NE 6.9 mph - N/A   Partly Cloudy
9:50 PM 30.2 °F 24.3 °F 24.8 °F 80% 30.33 in 6.2 mi NE 5.8 mph - N/A   Mostly Cloudy
10:00 PM 30 °F - 25 °F 74% 30.35 in 12 mi NE 4.6 mph - -   Mostly Cloudy
10:20 PM 30.2 °F 21.9 °F 24.8 °F 80% 30.33 in 6.2 mi NE 9.2 mph - N/A   Mostly Cloudy
10:50 PM 30.2 °F 20.2 °F 24.8 °F 80% 30.33 in 6.2 mi ENE 12.7 mph - N/A   Scattered Clouds
11:20 PM 30.2 °F 23.4 °F 24.8 °F 80% 30.36 in 6.2 mi NE 6.9 mph - N/A   Mostly Cloudy
11:50 PM 28.4 °F 19.7 °F 23.0 °F 80% 30.36 in 6.2 mi NE 9.2 mph - N/A   Partly Cloudy